Home   Weather   Bacău   Past weeks
Flag for Romania

Past Weather in Bacău, Romania — Yesterday and Last 2 Weeks

Now
70 °F

Sunny.


Feels Like: 70 °F
Forecast: 82 / 63 °F
Wind: No wind

Location: Bacau Airport

Current Time: Jul 21, 2019 at 9:56:55 am

Latest Report: Jul 21, 2019 at 9:00 am


Visibility: 10 mi

Pressure: 30.12 "Hg

Humidity: 83%

Dew Point: 64 °F

Location of BacăuLocation

Past Weather in Bacău — Graph

°F

Bacău Temperature Yesterday

Maximum temperature yesterday: 86 °F (at 3:00 pm)
Minimum temperature yesterday: 57 °F (at 4:30 am)
Average temperature yesterday: 71 °F

High & Low Weather Summary for the Past Weeks

 TemperatureHumidityPressure
High88 °F (Jul 7, 2:00 pm)100% (Jul 9, 5:30 am)30.12 "Hg (Jul 9, 5:30 am)
Low52 °F (Jul 10, 5:30 am)33% (Jul 20, 3:00 pm)29.65 "Hg (Jul 7, 6:00 pm)
Average68 °F73%29.88 "Hg
* Reported Jul 6 8:00 am — Jul 21 8:30 am, Bacău. Weather by CustomWeather, © 2019

Note: Actual official high and low records may vary slightly from our data, if they occured in-between our weather recording intervals... More about our weather records

Advertising

Bacău Weather History for the Previous 24 Hours

Scroll right to see more
 ConditionsComfort  
Time TempWeatherWind HumidityBarometerVisibility
8:30 am
Sun, Jul 21
68 °FSunny.No wind83%30.12 "Hg10 mi
8:00 am66 °FSunny.No wind88%30.12 "Hg10 mi
7:30 am66 °FSunny.No wind88%30.12 "Hg10 mi
7:00 am61 °FSunny.No wind100%30.12 "Hg10 mi
6:30 am59 °FSunny.No wind100%30.12 "Hg10 mi
6:00 am57 °FSunny.2 mph100%30.12 "Hg10 mi
5:30 am59 °FClear.No wind100%30.12 "Hg10 mi
5:00 am61 °FCool.2 mph100%30.12 "HgN/A
4:30 am59 °FClear.3 mph100%30.12 "Hg10 mi
4:00 am61 °FClear.No wind100%30.12 "Hg10 mi
3:30 am61 °FCool.No wind100%30.12 "HgN/A
3:00 am61 °FClear.No wind94%30.12 "Hg10 mi
2:30 am61 °FClear.1 mph100%30.12 "Hg10 mi
1:30 am63 °FMild.1 mph94%30.12 "HgN/A
1:00 am63 °FClear.No wind94%30.12 "Hg10 mi
12:30 am64 °FClear.No wind94%30.12 "Hg10 mi
12:00 am64 °FClear.No wind94%30.12 "Hg10 mi
11:30 pm
Sat, Jul 20
64 °FClear.1 mph94%30.12 "Hg10 mi
11:00 pm64 °FClear.3 mph94%30.12 "Hg10 mi
10:30 pm66 °FClear.No wind94%30.12 "Hg10 mi
10:00 pm68 °FPassing clouds.5 mph94%30.09 "HgN/A
9:30 pm68 °FPassing clouds.3 mph94%30.09 "HgN/A
9:00 pm70 °FPassing clouds.2 mph88%30.09 "HgN/A
8:30 pm72 °FScattered clouds.3 mph88%30.09 "HgN/A
8:00 pm72 °FScattered clouds.6 mph88%30.09 "HgN/A
7:30 pm70 °FThunderstorms. Broken clouds.1 mph83%30.09 "HgN/A
7:00 pm70 °FThunderstorms. Broken clouds.10 mph83%30.09 "HgN/A
6:30 pm81 °FThunderstorms. Broken clouds.8 mph54%30.07 "HgN/A
6:00 pm82 °FThunderstorms. Scattered clouds.No wind55%30.07 "HgN/A
5:30 pm84 °FScattered clouds.2 mph37%30.07 "HgN/A
5:00 pm86 °FScattered clouds.6 mph35%30.04 "HgN/A
4:30 pm86 °FScattered clouds.3 mph38%30.04 "HgN/A
4:00 pm86 °FScattered clouds.2 mph35%30.07 "HgN/A
3:30 pm86 °FPassing clouds.3 mph38%30.07 "HgN/A
3:00 pm86 °FPassing clouds.2 mph33%30.07 "HgN/A
2:30 pm84 °FPassing clouds.2 mph37%30.07 "HgN/A
2:00 pm84 °FPassing clouds.2 mph35%30.07 "HgN/A
1:30 pm84 °FSunny.3 mph40%30.09 "Hg10 mi
1:00 pm84 °FPassing clouds.2 mph40%30.09 "HgN/A
12:30 pm82 °FSunny.2 mph45%30.09 "Hg10 mi
12:00 pm81 °FSunny.2 mph51%30.09 "Hg10 mi
11:30 am79 °FSunny.1 mph54%30.09 "Hg10 mi
11:00 am77 °FWarm.2 mph61%30.09 "HgN/A
10:30 am75 °FSunny.1 mph65%30.09 "Hg10 mi
10:00 am72 °FSunny.1 mph78%30.09 "Hg10 mi
9:30 am72 °FSunny.1 mph78%30.09 "Hg10 mi
9:00 am72 °FSunny.No wind73%30.09 "Hg10 mi
Weather by CustomWeather, © 2019

See weather overview